TimeCDT,TemperatureF,Dew PointF,Humidity,Sea Level PressureIn,VisibilityMPH,Wind Direction,Wind SpeedMPH,Gust SpeedMPH,PrecipitationIn,Events,Conditions,WindDirDegrees,DateUTC
12:53 AM,48.0,41.0,77,29.53,10.0,SW,4.6,-,0.00,Rain,Light Rain,220,2012-10-19 05:53:00
1:53 AM,46.0,43.0,89,29.53,10.0,SW,8.1,-,0.02,Rain,Light Rain,220,2012-10-19 06:53:00
2:53 AM,46.0,44.1,93,29.51,10.0,SSW,10.4,-,0.02,Rain,Light Rain,210,2012-10-19 07:53:00
3:19 AM,46.4,44.6,93,29.50,10.0,SSW,10.4,-,0.00,,Overcast,200,2012-10-19 08:19:00
3:53 AM,46.9,44.1,90,29.50,10.0,SW,10.4,19.6,0.01,,Overcast,220,2012-10-19 08:53:00
4:53 AM,46.9,44.1,90,29.50,10.0,SW,9.2,18.4,N/A,,Overcast,230,2012-10-19 09:53:00
5:53 AM,48.0,44.1,86,29.51,10.0,SW,9.2,-,N/A,,Overcast,230,2012-10-19 10:53:00
6:53 AM,46.9,45.0,93,29.52,10.0,SW,6.9,-,N/A,,Overcast,230,2012-10-19 11:53:00
7:53 AM,46.0,44.1,93,29.53,10.0,WSW,8.1,-,0.00,,Overcast,240,2012-10-19 12:53:00
8:53 AM,46.9,44.1,90,29.54,10.0,WSW,8.1,17.3,N/A,,Overcast,250,2012-10-19 13:53:00
9:26 AM,44.6,44.6,100,29.54,2.5,West,9.2,19.6,0.00,,Overcast,260,2012-10-19 14:26:00
9:53 AM,46.0,45.0,96,29.55,6.0,WSW,5.8,-,0.00,,Overcast,250,2012-10-19 14:53:00
10:03 AM,46.4,44.6,93,29.55,9.0,WSW,5.8,-,N/A,,Overcast,250,2012-10-19 15:03:00
10:14 AM,46.4,44.6,93,29.55,3.0,West,9.2,20.7,0.01,Rain,Light Rain,270,2012-10-19 15:14:00
10:31 AM,46.4,44.6,93,29.56,7.0,West,9.2,-,0.01,,Overcast,260,2012-10-19 15:31:00
10:42 AM,46.4,44.6,93,29.56,6.0,WSW,11.5,18.4,0.01,Rain,Light Rain,250,2012-10-19 15:42:00
10:53 AM,46.0,44.1,93,29.57,10.0,West,13.8,18.4,0.01,,Overcast,270,2012-10-19 15:53:00
11:53 AM,48.0,44.1,86,29.57,10.0,West,10.4,18.4,0.00,,Overcast,260,2012-10-19 16:53:00
12:53 PM,48.9,44.1,83,29.58,10.0,WSW,13.8,20.7,N/A,,Overcast,250,2012-10-19 17:53:00
1:53 PM,48.0,43.0,83,29.60,10.0,West,16.1,24.2,0.00,,Overcast,270,2012-10-19 18:53:00
2:46 PM,48.2,46.4,93,29.61,10.0,West,13.8,-,0.00,Rain,Light Rain,270,2012-10-19 19:46:00
2:53 PM,48.9,46.0,90,29.62,10.0,West,16.1,20.7,0.01,Rain,Light Rain,270,2012-10-19 19:53:00
3:00 PM,50.0,44.6,82,29.61,10.0,West,12.7,20.7,0.00,,Mostly Cloudy,260,2012-10-19 20:00:00
3:25 PM,50.0,44.6,82,29.62,10.0,West,11.5,19.6,0.00,,Overcast,260,2012-10-19 20:25:00
3:42 PM,50.0,44.6,82,29.63,10.0,West,17.3,25.3,0.00,,Overcast,280,2012-10-19 20:42:00
3:53 PM,50.0,44.1,80,29.63,10.0,West,9.2,20.7,0.00,,Overcast,270,2012-10-19 20:53:00
4:53 PM,50.0,44.1,80,29.65,10.0,West,11.5,19.6,0.00,,Overcast,260,2012-10-19 21:53:00
5:53 PM,50.0,43.0,77,29.67,10.0,West,10.4,19.6,N/A,,Overcast,260,2012-10-19 22:53:00
6:53 PM,48.9,44.1,83,29.69,10.0,WSW,6.9,-,N/A,,Overcast,250,2012-10-19 23:53:00
7:53 PM,48.9,45.0,86,29.71,10.0,WSW,12.7,-,N/A,,Overcast,240,2012-10-20 00:53:00
8:53 PM,48.9,45.0,86,29.72,10.0,WSW,8.1,-,N/A,,Overcast,240,2012-10-20 01:53:00
9:53 PM,48.9,45.0,86,29.72,10.0,SW,9.2,-,N/A,,Overcast,230,2012-10-20 02:53:00
10:03 PM,48.2,46.4,93,29.72,10.0,WSW,9.2,-,N/A,,Overcast,240,2012-10-20 03:03:00
10:24 PM,48.2,46.4,93,29.72,10.0,WSW,10.4,16.1,N/A,,Overcast,250,2012-10-20 03:24:00
10:53 PM,48.9,46.0,90,29.73,10.0,West,10.4,18.4,N/A,,Overcast,260,2012-10-20 03:53:00
11:06 PM,48.2,44.6,87,29.72,10.0,West,10.4,18.4,N/A,,Overcast,260,2012-10-20 04:06:00
11:22 PM,48.2,44.6,87,29.72,10.0,West,10.4,18.4,N/A,,Overcast,260,2012-10-20 04:22:00
11:33 PM,48.2,44.6,87,29.72,10.0,West,10.4,21.9,N/A,,Overcast,260,2012-10-20 04:33:00
11:53 PM,48.9,45.0,86,29.73,10.0,WSW,10.4,-,N/A,,Overcast,250,2012-10-20 04:53:00